OE3AJC-13 Weather Reports


Display with metric or nautical units.
time (UTC)temp
F
wind
direction
speed
MPH
gust
MPH
rain 1hr
in
rain 24hr
in
rain mn
in
humidity
%
barometer
mb
20260506113146 71 154 6.0 6.0 0.00 0.00 0.00 43 1006.1
20260506110144 72 142 4.0 4.0 0.00 0.00 0.00 41 1006.6
20260506105135 70 135 4.0 5.0 0.00 0.00 0.00 44 1006.5
20260506104134 70 220 4.0 6.0 0.00 0.00 0.00 44 1006.7
20260506103134 70 231 0.0 1.0 0.00 0.00 0.00 44 1006.8
20260506102133 71 232 0.0 0.0 0.00 0.00 0.00 43 1006.9
20260506101132 69 226 0.0 0.0 0.00 0.00 0.00 44 1006.9
20260506100131 70 202 2.0 3.0 0.00 0.00 0.00 43 1007.0
20260506095131 72 169 2.0 3.0 0.00 0.00 0.00 41 1007.2
20260506094130 71 192 1.0 2.0 0.00 0.00 0.00 44 1007.5
20260506093129 70 241 0.0 2.0 0.00 0.00 0.00 47 1007.0
20260506092128 70 307 2.0 3.0 0.00 0.00 0.00 47 1007.6
20260506091128 70 219 2.0 3.0 0.00 0.00 0.00 48 1007.5
20260506090127 69 114 2.0 3.0 0.00 0.00 0.00 50 1007.4
20260506085126 69 133 1.0 2.0 0.00 0.00 0.00 50 1007.6
20260506084125 70 185 3.0 4.0 0.00 0.00 0.00 49 1007.8
20260506083125 69 243 1.0 2.0 0.00 0.00 0.00 50 1007.8
20260506081123 67 217 0.0 0.0 0.00 0.00 0.00 52 1007.7
20260506080122 66 179 2.0 3.0 0.00 0.00 0.00 54 1007.7
20260506073117 64 225 1.0 2.0 0.00 0.00 0.00 59 1008.0
20260506072117 64 147 2.0 2.0 0.00 0.00 0.00 59 1008.2
20260506071116 63 188 1.0 2.0 0.00 0.00 0.00 60 1008.0
20260506070115 64 171 3.0 4.0 0.00 0.00 0.00 59 1008.2
20260506062112 63 187 2.0 4.0 0.00 0.00 0.00 64 1008.1
20260506061112 61 216 2.0 4.0 0.00 0.00 0.00 65 1008.1
20260506060111 61 210 2.0 3.0 0.00 0.00 0.00 66 1007.9
20260506050106 54 208 0.0 1.0 0.00 0.00 0.00 80 1008.1
20260506045106 53 200 0.0 1.0 0.00 0.00 0.00 83 1008.0
20260506044105 51 213 1.0 2.0 0.00 0.00 0.00 84 1008.3
20260506043104 50 224 0.0 1.0 0.00 0.00 0.00 85 1008.0
20260506042103 49 215 0.0 0.0 0.00 0.00 0.00 84 1007.8
20260506041103 49 231 0.0 0.0 0.00 0.00 0.00 84 1007.8
20260506035101 50 203 0.0 1.0 0.00 0.00 0.00 84 1007.5
20260506034100 50 227 0.0 0.0 0.00 0.00 0.00 84 1007.3
20260506033100 50 218 0.0 1.0 0.00 0.00 0.00 84 1007.2
20260506032058 50 226 0.0 0.0 0.00 0.00 0.00 84 1007.0
20260506031058 50 229 0.0 0.0 0.00 0.00 0.00 83 1007.2
20260506030057 51 232 0.0 0.0 0.00 0.00 0.00 83 1007.3
20260506025056 50 226 0.0 0.0 0.00 0.00 0.00 83 1007.3
20260506024056 51 232 0.0 0.0 0.00 0.00 0.00 83 1007.2
20260506023055 52 227 0.0 0.0 0.00 0.00 0.00 82 1007.5
20260506022054 52 206 0.0 1.0 0.00 0.00 0.00 82 1007.4
20260506021053 52 225 0.0 0.0 0.00 0.00 0.00 81 1007.5
20260506020053 53 211 0.0 2.0 0.00 0.00 0.00 81 1007.6
20260506015052 54 222 0.0 0.0 0.00 0.00 0.00 81 1007.3
20260506014051 54 231 0.0 0.0 0.00 0.00 0.00 80 1007.3
20260506013050 54 230 0.0 0.0 0.00 0.00 0.00 80 1007.4
20260506012050 54 231 0.0 0.0 0.00 0.00 0.00 79 1007.6
20260506011049 55 231 0.0 0.0 0.00 0.00 0.00 78 1007.5
20260506010048 55 228 0.0 0.0 0.00 0.00 0.00 78 1007.5
20260505115346 77 130 6.0 10.0 0.00 0.00 0.00 35 1006.7
20260505114344 77 121 5.0 8.0 0.00 0.00 0.00 35 1006.6